TimeEDT,TemperatureF,Dew PointF,Humidity,Sea Level PressureIn,VisibilityMPH,Wind Direction,Wind SpeedMPH,Gust SpeedMPH,PrecipitationIn,Events,Conditions,WindDirDegrees,DateUTC
12:54 AM,70.0,69.1,97,29.98,10.0,South,4.6,-,0.00,,Clear,190,2013-06-18 04:54:00
1:54 AM,70.0,69.1,97,29.96,9.0,Calm,Calm,-,N/A,,Mostly Cloudy,0,2013-06-18 05:54:00
2:54 AM,70.0,69.1,97,29.94,7.0,Calm,Calm,-,N/A,,Mostly Cloudy,0,2013-06-18 06:54:00
3:54 AM,71.1,70.0,96,29.92,5.0,South,4.6,-,N/A,,Mostly Cloudy,180,2013-06-18 07:54:00
4:54 AM,71.1,70.0,96,29.91,5.0,South,3.5,-,N/A,,Clear,190,2013-06-18 08:54:00
5:51 AM,71.6,69.8,94,29.94,3.0,Calm,Calm,-,N/A,,Mostly Cloudy,0,2013-06-18 09:51:00
5:54 AM,71.1,70.0,96,29.94,4.0,Calm,Calm,-,N/A,,Mostly Cloudy,0,2013-06-18 09:54:00
6:17 AM,71.6,69.8,94,29.93,2.0,Calm,Calm,-,N/A,,Partly Cloudy,0,2013-06-18 10:17:00
6:40 AM,71.6,69.8,94,29.94,1.5,Calm,Calm,-,N/A,,Partly Cloudy,0,2013-06-18 10:40:00
6:52 AM,71.6,71.6,100,29.94,1.8,Calm,Calm,-,N/A,,Clear,0,2013-06-18 10:52:00
6:54 AM,72.0,71.1,97,29.93,2.0,Calm,Calm,-,N/A,,Clear,0,2013-06-18 10:54:00
7:10 AM,71.6,71.6,100,29.94,2.0,Calm,Calm,-,N/A,,Scattered Clouds,0,2013-06-18 11:10:00
7:19 AM,71.6,71.6,100,29.94,2.5,Calm,Calm,-,N/A,,Mostly Cloudy,0,2013-06-18 11:19:00
7:54 AM,73.0,72.0,96,29.93,3.0,Calm,Calm,-,N/A,,Mostly Cloudy,0,2013-06-18 11:54:00
8:16 AM,73.4,71.6,94,29.93,4.0,SW,3.5,-,N/A,,Overcast,220,2013-06-18 12:16:00
8:34 AM,73.4,71.6,94,29.94,5.0,WSW,8.1,-,N/A,,Overcast,240,2013-06-18 12:34:00
8:54 AM,73.9,72.0,93,29.94,6.0,SW,5.8,-,N/A,,Overcast,230,2013-06-18 12:54:00
9:12 AM,73.4,71.6,94,29.94,6.0,WSW,6.9,-,N/A,,Mostly Cloudy,240,2013-06-18 13:12:00
9:32 AM,75.2,71.6,89,29.94,7.0,SW,6.9,-,N/A,,Scattered Clouds,230,2013-06-18 13:32:00
9:54 AM,77.0,72.0,84,29.93,9.0,WSW,11.5,-,N/A,,Partly Cloudy,250,2013-06-18 13:54:00
10:14 AM,78.8,71.6,78,29.93,10.0,WSW,9.2,-,N/A,,Mostly Cloudy,240,2013-06-18 14:14:00
10:21 AM,77.0,71.6,83,29.93,10.0,WSW,10.4,-,N/A,,Mostly Cloudy,250,2013-06-18 14:21:00
10:33 AM,77.0,71.6,83,29.93,10.0,SW,10.4,-,N/A,,Mostly Cloudy,230,2013-06-18 14:33:00
10:54 AM,78.1,71.1,79,29.93,10.0,WSW,10.4,-,N/A,,Overcast,240,2013-06-18 14:54:00
11:54 AM,82.9,71.1,67,29.92,10.0,WSW,10.4,-,N/A,,Scattered Clouds,250,2013-06-18 15:54:00
12:04 PM,84.2,71.6,66,29.92,10.0,WSW,10.4,-,N/A,,Mostly Cloudy,250,2013-06-18 16:04:00
12:13 PM,82.4,71.6,70,29.92,10.0,WSW,9.2,17.3,N/A,,Scattered Clouds,250,2013-06-18 16:13:00
12:35 PM,86.0,71.6,62,29.91,10.0,WSW,11.5,17.3,N/A,,Mostly Cloudy,250,2013-06-18 16:35:00
12:42 PM,87.8,71.6,58,29.91,10.0,West,10.4,18.4,N/A,,Mostly Cloudy,260,2013-06-18 16:42:00
12:54 PM,86.0,71.1,61,29.91,10.0,WSW,12.7,-,N/A,,Mostly Cloudy,250,2013-06-18 16:54:00
1:54 PM,84.0,70.0,63,29.89,10.0,West,15.0,19.6,N/A,,Mostly Cloudy,260,2013-06-18 17:54:00
2:19 PM,80.6,73.4,79,29.88,2.0,WSW,10.4,-,0.02,Rain,Light Rain,250,2013-06-18 18:19:00
2:28 PM,82.4,75.2,79,29.88,10.0,WSW,8.1,-,0.02,,Mostly Cloudy,250,2013-06-18 18:28:00
2:54 PM,84.9,73.0,67,29.86,10.0,WSW,8.1,-,0.02,,Clear,250,2013-06-18 18:54:00
3:54 PM,89.1,71.1,55,29.84,10.0,SSW,9.2,-,N/A,,Partly Cloudy,210,2013-06-18 19:54:00
4:54 PM,88.0,72.0,59,29.82,10.0,SSW,8.1,-,N/A,,Scattered Clouds,210,2013-06-18 20:54:00
5:47 PM,84.2,73.4,70,29.81,10.0,South,6.9,-,N/A,Thunderstorm,Mostly Cloudy,190,2013-06-18 21:47:00
5:54 PM,82.9,73.9,74,29.80,4.0,South,8.1,-,0.03,Rain-Thunderstorm,Light Rain,190,2013-06-18 21:54:00
6:02 PM,80.6,75.2,84,29.81,5.0,SW,12.7,26.5,0.00,Rain,Light Rain,220,2013-06-18 22:02:00
6:06 PM,80.6,75.2,84,29.81,2.5,WSW,13.8,26.5,0.01,Rain-Thunderstorm,Thunderstorms and Rain,240,2013-06-18 22:06:00
6:16 PM,78.8,71.6,78,29.80,9.0,SW,8.1,-,0.02,Rain-Thunderstorm,Light Thunderstorms and Rain,220,2013-06-18 22:16:00
6:48 PM,80.6,73.4,79,29.80,10.0,Variable,4.6,-,0.02,Thunderstorm,Clear,0,2013-06-18 22:48:00
6:54 PM,81.0,73.9,79,29.80,10.0,SSW,3.5,-,0.02,Thunderstorm,Clear,210,2013-06-18 22:54:00
7:08 PM,75.2,73.4,94,29.82,1.8,SW,15.0,33.4,0.04,Rain-Thunderstorm,Heavy Thunderstorms and Rain,230,2013-06-18 23:08:00
7:16 PM,75.2,73.4,94,29.82,3.0,SW,15.0,24.2,0.05,Rain-Thunderstorm,Light Rain,230,2013-06-18 23:16:00
7:43 PM,73.4,71.6,94,29.82,10.0,SSW,5.8,-,0.05,,Clear,200,2013-06-18 23:43:00
7:54 PM,73.9,71.1,91,29.82,10.0,Calm,Calm,-,0.05,,Clear,0,2013-06-18 23:54:00
8:54 PM,73.0,71.1,93,29.81,10.0,SSW,5.8,-,N/A,,Clear,210,2013-06-19 00:54:00
9:54 PM,73.0,71.1,93,29.85,10.0,WSW,4.6,-,N/A,,Scattered Clouds,250,2013-06-19 01:54:00
10:54 PM,73.0,71.1,93,29.85,9.0,SW,4.6,-,N/A,,Partly Cloudy,220,2013-06-19 02:54:00
11:54 PM,73.0,71.1,93,29.87,8.0,NW,4.6,-,N/A,,Partly Cloudy,320,2013-06-19 03:54:00